sat.trackr.live / text

‹ back to catalog

QIANFAN-92

NORAD 66034 · 2025-233B

PAYLOAD ACTIVE UNKNOWN

§ Identity

Operator
Country
PRC
Launch date
2025-10-17
Launch site
TAISC
Launch vehicle
Mass (kg)
RCS (m²)

External: N2YO · Heavens-Above · Gunter

§ Orbital elements

Epoch: 2026-09-20T14:35:30.598656Z

Period
106.59 min
Inclination
89.0036°
Eccentricity
0.0002430
Mean motion
13.50962024 rev/d
Perigee alt
1,066.9 km
Apogee alt
1,070.5 km
Semi-major
7,446.9 km
B*
3.5933e-5
RAAN
33.4976°
Arg perigee
107.8100°
Mean anomaly
252.3317°
Rev number
4,606

§ Raw data

QIANFAN-921 66034U 25233B   26263.60799304  .00000035  00000+0  35933-4 0  99952 66034  89.0036  33.4976 0002430 107.8100 252.3317 13.50962024 46066

JSON: /api/v1/satellites/66034 · /tle

For live sub-satellite position, see the globe view (requires WebGL).

§ Visibility from observer

Set your observer location to see the next 7 days of passes ≥ 10°. The values pass through the URL so the page stays shareable.

No JS? Fill the form by hand. The geolocation button needs JavaScript.